Tracking 19817 objects as of 19-Aug-2019
HD Live streaming from Space Station
objects crossing your sky now

SL-12 R/B(2)

Track SL-12 R/B(2) now!


NORAD ID: 28240
Int'l Code: 2004-015D
Perigee: 35,590.6 km
Apogee: 35,753.4 km
Inclination: 11.1 °
Period: 1,429.9 minutes
Semi major axis: 42042 km
RCS: 1.2715 m2 (large)
Launch date: April 26, 2004
Source: Commonwealth of Independent States (former USSR) (CIS)
Launch site: TYURATAM MISSILE AND SPACE COMPLEX (TTMTR)

Note: This is a ROCKET BODY
aabbcc
Your satellite tracking list
Your tracking list is empty




NASA's NSSDC Master Catalog

Two Line Element Set (TLE):
1 28240U 04015D   19230.75581302 -.00000158 +00000-0 +00000-0 0  9997
2 28240 011.1474 031.9856 0019366 276.5065 262.5679 01.00707616056280
Source of the keplerian elements: AFSPC